Location: Newark
(35.4036°N, 80.4356°W)
Time: 22:45:42
(UTC+00:00)

YUBILEINY - Visible Passes

Search period start: 20 September 2019 00:00
Search period end: 30 September 2019 00:00
Orbit: 1479 x 1508 km, 82.5° (Epoch: 20 September)

Date Brightness Start Highest point End Pass type
(mag) Time Alt. Az. Time Alt. Az. Time Alt. Az.
20 Sep ? 00:50:40 10° NW 00:54:22 13° WNW 00:58:05 10° WSW visible
20 Sep ? 09:53:11 10° SE 09:59:30 23° E 10:05:49 10° NE visible
20 Sep ? 23:58:29 10° NNW 00:05:38 29° W 00:12:45 10° SW visible
22 Sep ? 10:08:57 10° SSE 10:16:42 37° E 10:24:28 10° NNE visible
23 Sep ? 00:17:37 10° NW 00:22:44 17° W 00:27:52 10° WSW visible
23 Sep ? 09:22:26 10° ESE 09:27:50 18° E 09:33:13 10° NE visible
24 Sep ? 10:25:33 10° SSE 10:34:03 58° E 10:42:37 10° NNE visible
25 Sep ? 09:37:42 10° SE 09:44:57 30° E 09:52:14 10° NNE visible
25 Sep ? 23:44:57 10° NW 23:51:05 21° W 23:57:11 10° SW visible
26 Sep ? 08:52:04 10° ESE 08:56:11 14° ENE 09:00:18 10° NE visible
26 Sep ? 10:42:47 10° S 10:51:34 87° E 11:00:27 10° N visible
27 Sep ? 09:53:59 10° SSE 10:02:15 48° E 10:10:33 10° NNE visible
28 Sep ? 00:05:14 10° WNW 00:08:05 12° WNW 00:10:56 10° W visible
28 Sep ? 09:06:37 10° SE 09:13:14 25° E 09:19:53 10° NNE visible
29 Sep ? 08:22:45 10° E 08:24:34 11° ENE 08:26:24 10° ENE visible
29 Sep ? 10:10:58 10° S 10:19:41 74° E 10:28:31 10° N visible
